Date,TemperatureHighF,TemperatureAvgF,TemperatureLowF,DewpointHighF,DewpointAvgF,DewpointLowF,HumidityHigh,HumidityAvg,HumidityLow,PressureMaxIn,PressureMinIn,WindSpeedMaxMPH,WindSpeedAvgMPH,GustSpeedMaxMPH,PrecipitationSumIn
2012-1-1,28,24,14,25,20,9,89,85,81,29.90,29.56,13,2,14,0.00
2012-1-2,15,10,0,9,4,-5,83,78,72,30.26,29.89,13,2,15,0.00
2012-1-3,16,5,-8,7,-2,-13,82,73,63,30.25,29.77,10,1,10,0.00
2012-1-4,27,15,6,21,9,0,84,78,73,29.88,29.75,8,0,8,0.00
2012-1-7,20,18,15,14,11,10,78,76,74,30.11,30.08,0,0,0,0.00
2012-1-8,32,25,16,23,18,0,84,74,64,30.16,29.98,7,1,8,0.00
2012-1-9,41,32,24,29,24,18,83,72,59,29.98,29.68,12,3,16,0.00
2012-1-10,43,33,18,31,25,0,86,73,62,29.90,29.63,14,2,14,0.00
2012-1-11,43,32,26,35,26,0,86,80,71,29.63,29.52,8,0,8,0.00
2012-1-12,28,16,12,24,11,0,85,81,58,29.60,29.51,11,3,22,0.00
2012-1-13,14,11,6,9,6,-1,82,77,72,29.92,29.56,14,2,14,0.00
2012-1-14,11,6,0,4,0,-6,78,75,71,30.07,29.92,7,0,7,0.00
2012-1-15,25,16,4,19,11,-1,83,80,78,30.10,29.80,11,0,11,0.00
2012-1-16,30,25,22,25,20,-2,85,82,25,29.83,29.70,10,0,13,0.00
2012-1-17,22,12,8,17,7,2,81,77,74,30.04,29.80,11,1,12,0.00
2012-1-18,17,7,-8,8,0,-13,80,72,60,30.07,29.50,10,2,11,0.00
2012-1-19,13,-6,-18,8,-14,-26,80,69,61,30.01,29.50,8,1,9,0.00
2012-1-20,4,-8,-20,-6,-16,-27,72,66,59,30.09,29.98,5,0,6,0.00
2012-1-21,16,1,-18,5,-8,-25,74,66,59,30.15,29.92,8,0,8,0.00
2012-1-22,26,22,13,21,17,5,87,81,68,29.93,29.48,6,0,10,0.00
2012-1-23,30,24,18,27,21,15,89,87,85,29.66,29.31,5,0,5,0.00
2012-1-24,24,16,6,18,12,1,85,81,78,30.19,29.66,7,0,8,0.00
2012-1-25,31,21,7,26,17,2,86,83,81,30.22,29.88,5,0,7,0.00
2012-1-26,29,27,24,26,23,20,88,86,82,29.89,29.57,9,1,9,0.00
2012-1-27,33,25,11,24,18,0,86,76,56,29.74,29.59,9,2,9,0.00
2012-1-28,26,18,14,22,13,10,84,80,76,29.81,29.67,11,2,11,0.00
2012-1-29,19,11,-5,10,4,-11,80,72,63,30.04,29.80,65,1,65,0.00
2012-1-30,29,15,-4,22,10,-11,81,75,72,30.00,29.68,6,0,6,0.04
2012-1-31,41,30,21,32,24,16,84,79,70,29.78,29.54,10,1,10,0.08
2012-2-1,37,29,21,29,23,17,83,80,71,30.05,29.78,10,1,10,0.00
2012-2-2,31,28,21,27,24,0,88,86,83,30.32,30.03,5,0,6,0.00
2012-2-3,40,29,13,29,23,7,88,79,63,30.42,30.32,7,0,7,0.02
2012-2-4,44,24,6,30,15,1,86,70,50,30.32,30.11,6,0,10,0.00
2012-2-5,40,29,23,27,21,16,81,73,56,30.22,29.99,7,2,10,0.00
2012-2-6,32,26,18,27,21,13,86,81,76,30.19,29.93,10,1,12,0.00
2012-2-7,25,16,0,19,8,-7,81,71,58,30.39,30.19,9,2,11,0.00
2012-2-8,34,13,-3,8,-1,-9,76,55,33,30.30,30.05,6,1,8,0.00
2012-2-9,33,19,5,15,6,-4,70,55,40,30.05,29.80,11,2,11,0.00
2012-2-10,23,10,0,15,2,-8,77,69,61,30.17,29.80,15,3,16,0.00
2012-2-11,16,7,0,3,-2,-15,72,65,25,30.23,30.11,10,2,12,0.00
2012-2-12,34,15,2,10,0,-7,63,51,36,30.14,29.96,9,1,9,0.00
2012-2-13,29,17,-2,14,4,-12,71,57,42,29.96,29.70,8,2,8,0.00
2012-2-14,28,25,20,22,19,13,80,76,71,29.80,29.67,6,0,8,0.00
2012-2-15,36,30,26,29,24,20,85,79,72,29.91,29.79,8,0,8,0.00
2012-2-16,35,30,27,26,23,20,85,75,59,29.91,29.86,7,1,10,0.00
2012-2-17,34,26,19,24,20,14,80,75,66,29.97,29.88,7,1,7,0.00
2012-2-18,34,21,9,19,13,2,82,71,54,30.11,29.97,7,0,7,0.02
2012-2-19,39,20,0,21,9,-7,75,63,46,30.09,30.01,7,1,7,0.00
2012-2-20,38,24,6,22,12,0,80,62,44,30.11,29.78,12,1,12,0.00
2012-2-21,32,29,27,27,24,18,86,80,67,29.78,29.36,12,2,14,0.02
2012-2-22,30,26,19,23,20,12,84,77,69,29.37,29.30,10,2,12,0.02
2012-2-23,33,24,16,24,17,10,81,73,64,29.61,29.37,6,1,9,0.00
2012-2-24,29,23,14,21,17,10,82,78,72,29.78,29.56,7,1,8,0.00
2012-2-25,25,17,10,17,11,3,83,76,67,30.13,29.78,6,0,6,0.00
2012-2-26,31,23,9,25,17,3,80,77,71,30.14,29.70,9,1,14,0.00
2012-2-27,30,23,9,22,16,2,82,73,59,30.32,29.75,10,2,11,0.00
2012-2-28,29,22,9,23,16,2,86,79,74,30.31,29.88,4,0,5,0.02
2012-2-29,29,28,26,27,25,22,90,88,86,29.87,29.36,0,0,0,0.00
2012-3-1,29,27,-22,26,24,-24,88,87,85,29.73,29.54,0,0,0,0.00
2012-3-2,32,28,24,29,25,22,90,87,83,29.73,29.42,0,0,0,0.06
2012-3-3,27,22,13,24,17,8,89,81,76,29.74,29.37,7,2,9,0.00
2012-3-4,22,12,-22,14,6,-28,83,77,69,29.95,29.74,8,1,8,0.00
2012-3-5,28,16,-3,19,10,-9,82,74,67,30.12,29.95,10,2,10,0.00
2012-3-6,43,32,22,36,20,0,87,50,66,29.97,29.65,10,1,10,0.08
2012-3-7,48,42,31,43,37,28,89,81,70,29.70,29.51,13,3,13,0.04
2012-3-8,33,27,20,27,19,15,88,73,53,30.03,29.70,15,2,15,0.00
2012-3-9,28,21,14,15,10,8,80,63,48,30.39,30.03,11,2,11,0.02
2012-3-10,53,36,22,31,21,9,63,54,42,30.26,29.85,14,4,15,0.00
2012-3-11,61,48,34,36,30,0,64,49,37,30.01,29.92,11,3,12,0.00
2012-3-12,49,44,41,45,37,27,89,78,47,29.92,29.60,8,1,8,0.36
2012-3-13,55,42,31,39,29,17,90,64,34,29.97,29.66,9,1,14,0.00
2012-3-14,69,51,30,52,38,17,79,62,52,29.95,29.76,12,1,13,0.00
2012-3-15,64,47,34,39,32,24,84,60,39,30.02,29.88,10,1,10,0.00
2012-3-16,70,49,29,50,36,20,75,61,50,30.04,29.91,10,0,11,0.00
2012-3-17,75,62,51,61,53,42,88,72,52,29.94,29.86,19,2,19,0.00
2012-3-18,77,64,52,60,53,47,87,69,50,29.93,29.85,16,2,16,0.00
2012-3-19,77,64,53,60,53,48,88,69,50,29.91,29.82,11,1,15,0.00
2012-3-20,74,63,52,58,53,46,86,70,53,29.97,29.83,15,2,15,0.00
2012-3-21,72,62,49,55,51,44,87,67,53,30.08,29.95,14,2,16,0.00
2012-3-22,60,54,52,53,49,47,89,83,77,30.15,30.05,8,1,9,0.00
2012-3-23,56,52,48,54,50,46,93,91,85,30.05,29.90,6,0,7,0.16
2012-3-24,60,52,46,56,49,19,94,90,25,29.96,29.88,6,0,6,0.00
2012-3-25,50,42,27,47,34,19,92,74,48,30.25,29.93,15,3,15,0.00
2012-3-26,46,33,21,25,19,14,77,58,41,30.36,30.11,10,2,12,0.00
2012-3-27,62,45,31,50,32,16,66,60,48,30.12,29.50,15,3,21,0.00
2012-3-28,50,40,35,39,31,26,73,69,64,30.05,29.58,12,2,57,0.00
2012-3-29,46,37,31,31,26,8,76,65,25,30.13,29.91,8,1,13,0.00
2012-3-30,34,32,31,30,27,22,86,83,66,29.92,29.80,4,0,4,0.08
2012-3-31,39,34,30,34,30,27,88,86,82,29.94,29.73,9,1,10,0.00
2012-4-1,53,43,36,46,39,33,91,85,75,29.85,29.71,4,0,8,0.02
2012-4-2,56,44,34,42,36,31,88,73,51,29.95,29.84,7,1,8,0.02
2012-4-3,56,43,29,41,34,20,86,70,43,30.01,29.81,12,1,12,0.06
2012-4-4,55,40,24,32,24,18,82,56,34,30.05,29.95,10,2,12,0.00
2012-4-5,50,37,27,26,22,15,76,56,38,30.20,30.04,36,4,36,0.00
2012-4-6,58,39,20,29,20,10,70,49,31,30.28,30.14,11,1,11,0.00
2012-4-7,61,46,28,38,29,18,80,54,35,30.17,29.94,10,1,18,0.08
2012-4-8,53,44,32,33,26,20,80,51,36,30.02,29.92,9,1,10,0.00
2012-4-9,41,32,-22,25,19,-34,71,58,47,29.99,29.85,9,1,22,0.00
2012-4-10,37,30,25,22,17,14,67,60,49,30.11,29.96,14,2,14,0.00
2012-4-11,48,34,25,31,23,1,74,63,25,30.26,30.11,10,1,10,0.00
2012-4-12,58,41,22,34,26,16,83,58,36,30.17,30.07,10,0,10,0.00
2012-4-13,58,44,31,34,27,20,66,53,38,30.14,29.95,10,1,10,0.00
2012-4-14,70,61,48,48,43,38,86,53,38,29.80,29.70,13,3,17,0.00
2012-4-15,64,54,46,58,46,38,87,76,63,29.72,29.33,12,1,16,0.02
2012-4-16,64,32,25,57,26,18,84,78,25,30.12,29.26,9,2,10,0.08
2012-4-17,47,35,25,31,25,19,78,67,52,30.27,30.12,11,1,11,0.04
2012-4-18,55,42,35,46,36,27,91,80,68,30.15,29.72,14,2,54,0.46
2012-4-19,44,37,29,34,30,24,84,75,65,30.02,29.89,9,3,10,0.00
2012-4-20,48,39,32,29,26,19,81,61,42,30.03,29.87,16,4,19,0.00
2012-4-21,52,40,28,31,25,18,71,56,44,30.04,29.93,8,1,8,0.00
2012-4-22,55,42,29,29,25,19,69,53,34,30.14,30.02,9,2,10,0.00
2012-4-23,53,39,25,26,22,16,69,52,28,30.12,29.92,10,2,12,0.00
2012-4-24,60,52,38,32,29,23,61,41,33,29.74,29.65,11,3,12,0.00
2012-4-25,48,42,34,36,31,22,80,66,50,29.75,29.67,5,0,6,0.16
2012-4-26,44,37,26,37,27,14,86,67,44,30.13,29.71,57,3,57,0.00
2012-4-27,56,41,21,27,21,13,78,46,30,30.21,30.11,8,2,12,0.00
2012-4-28,53,40,30,30,22,15,59,49,40,30.22,30.12,10,1,10,0.00
2012-4-29,62,45,25,33,25,17,80,48,29,30.27,30.07,7,0,8,0.00
2012-4-30,48,42,36,41,35,23,83,75,39,30.09,29.84,6,0,6,0.20
2012-5-1,68,53,34,51,42,29,89,69,46,29.91,29.75,13,1,13,0.00
2012-5-2,77,60,51,58,51,43,91,74,47,29.86,29.62,8,1,10,0.28
2012-5-3,75,62,50,62,54,44,90,76,57,29.95,29.77,10,2,10,0.32
2012-5-4,65,53,45,49,44,37,88,71,53,30.08,29.94,13,3,13,0.00
2012-5-5,64,51,41,51,42,35,85,74,60,30.09,30.00,13,1,13,0.04
2012-5-6,50,44,41,43,40,9,92,84,68,30.07,29.93,11,2,15,0.54
2012-5-7,67,52,44,53,46,42,92,81,56,29.94,29.78,10,1,10,0.02
2012-5-8,60,50,42,46,42,37,86,74,52,29.90,29.77,9,1,9,0.06
2012-5-9,60,48,35,40,34,23,86,61,34,29.94,29.86,11,2,11,0.00
2012-5-10,72,51,29,41,33,-28,81,53,32,29.96,29.88,9,1,9,0.00
2012-5-11,72,57,42,52,42,30,76,60,47,30.11,29.90,14,2,15,0.00
2012-5-12,69,54,39,42,35,24,77,53,27,30.28,30.11,6,1,8,0.04
2012-5-13,70,54,33,41,33,22,73,48,30,30.23,30.03,10,2,11,0.00
2012-5-14,80,62,41,47,40,30,71,47,29,30.03,29.85,9,1,9,0.00
2012-5-15,71,59,38,48,40,27,66,51,34,30.00,29.73,11,2,13,0.00
2012-5-16,65,48,32,36,30,25,80,53,31,30.10,29.99,9,1,9,0.00
2012-5-17,66,53,38,45,38,26,64,56,42,30.11,29.90,11,1,13,0.02
2012-5-18,83,67,48,55,46,36,65,48,34,29.96,29.87,12,3,13,0.00
2012-5-19,85,70,51,57,50,40,67,50,35,29.96,29.88,12,2,14,0.00
2012-5-20,83,66,45,62,54,40,85,66,46,30.07,29.77,21,2,21,0.04
2012-5-21,66,52,37,45,37,28,86,60,35,30.18,30.06,12,1,13,0.00
2012-5-22,72,55,34,46,37,26,78,54,37,30.12,29.86,10,1,11,0.00
2012-5-23,75,62,48,50,44,36,63,52,40,29.86,29.63,16,1,16,0.00
2012-5-24,82,68,59,61,52,0,87,56,44,29.66,29.38,17,2,17,0.54
2012-5-25,69,59,49,55,46,39,87,65,43,30.10,29.52,14,2,16,0.00
2012-5-26,68,56,42,52,46,24,84,70,25,30.22,30.00,8,1,8,0.16
2012-5-27,78,65,54,66,59,42,91,82,59,30.07,29.73,12,1,12,0.40
2012-5-28,80,70,56,64,60,49,87,71,50,29.74,29.62,12,2,15,0.18
2012-5-29,59,54,46,50,46,40,88,76,60,29.80,29.66,10,2,13,0.10
2012-5-30,51,45,37,42,38,31,87,76,61,29.98,29.79,10,1,10,0.02
2012-5-31,62,47,34,43,36,29,86,67,47,30.05,29.93,9,1,11,0.00
2012-6-1,66,50,31,46,36,26,84,62,41,29.96,29.71,11,1,13,0.00
2012-6-2,70,55,38,46,39,30,77,57,37,29.71,29.60,10,1,15,0.02
2012-6-3,76,61,45,50,44,37,79,56,36,29.87,29.68,7,1,61,0.00
2012-6-4,74,63,50,56,50,42,77,63,49,29.98,29.86,9,0,9,0.00
2012-6-5,72,61,50,55,50,43,78,67,53,30.06,29.96,7,0,7,0.00
2012-6-6,79,61,42,52,46,36,84,61,36,30.11,30.04,9,0,9,0.00
2012-6-7,79,64,45,57,50,39,82,63,44,30.12,29.99,8,1,11,0.00
2012-6-8,78,66,55,65,57,48,84,74,59,30.01,29.78,10,1,12,0.02
2012-6-9,87,75,64,62,58,53,79,57,39,29.82,29.76,15,4,15,0.00
2012-6-10,86,75,60,62,57,50,71,55,42,29.87,29.75,16,3,16,0.00
2012-6-11,80,71,58,64,56,42,80,61,40,29.83,29.70,12,3,15,0.02
2012-6-12,66,54,42,42,38,31,69,56,39,30.11,29.83,9,2,12,0.00
2012-6-13,72,57,38,48,42,29,80,58,40,30.17,30.04,9,2,11,0.00
2012-6-14,62,56,51,56,46,40,88,72,54,30.15,29.79,8,0,8,0.50
2012-6-15,82,73,63,67,63,58,85,70,60,30.04,29.96,6,1,7,0.00
2012-6-16,79,67,60,63,60,56,91,80,58,30.04,29.75,8,0,9,0.14
2012-6-17,75,64,54,56,54,51,92,71,49,29.82,29.67,12,2,12,0.00
2012-6-18,82,68,56,71,62,51,92,83,69,29.72,29.51,10,1,10,0.70
2012-6-19,85,73,63,73,67,60,94,81,64,29.86,29.72,13,1,13,0.26
2012-6-20,84,74,-21,71,65,-26,89,75,61,29.85,29.72,14,3,14,0.89
2012-6-21,72,64,56,60,56,47,92,75,51,29.95,29.75,10,1,10,0.04
2012-6-22,75,62,49,59,52,44,87,71,53,30.00,29.92,7,1,7,0.02
2012-6-23,71,61,51,58,55,47,89,80,61,30.03,29.96,9,1,10,0.08
2012-6-24,71,63,47,63,55,38,92,76,47,30.12,29.93,9,1,10,0.14
2012-6-25,78,59,40,54,46,35,85,63,42,30.19,30.05,6,1,8,0.00
2012-6-26,78,64,46,56,50,0,85,62,14,30.06,29.89,10,1,10,0.00
2012-6-27,87,72,55,67,58,47,78,63,51,29.89,29.71,10,2,10,0.00
2012-6-28,82,72,63,69,60,54,88,68,43,29.86,29.74,8,1,75,0.00
2012-6-29,84,71,56,61,56,49,82,60,45,29.87,29.76,9,1,12,0.00
2012-6-30,82,69,56,61,54,48,85,61,40,29.92,29.79,10,1,10,0.00
2012-7-1,88,71,52,66,57,46,83,64,45,30.00,29.89,8,1,8,0.00
2012-7-2,89,76,62,73,65,56,83,69,57,29.99,29.80,9,1,9,0.54
2012-7-3,88,79,63,72,68,61,92,70,54,29.84,29.78,8,0,8,0.04
2012-7-4,89,77,65,77,69,61,90,78,62,29.93,29.80,9,0,18,0.04
2012-7-5,90,81,63,72,67,56,88,63,44,29.99,29.90,6,0,7,0.00
2012-7-6,85,71,56,73,62,51,90,75,56,30.06,29.91,10,1,15,0.46
2012-7-7,78,67,58,63,58,51,92,75,55,30.13,29.97,8,1,8,0.08
2012-7-8,80,66,-21,65,57,-31,88,72,52,30.12,30.05,9,1,9,0.24
2012-7-9,78,66,52,61,54,48,87,68,48,30.14,30.05,7,1,8,0.00
2012-7-10,79,65,50,61,54,24,86,68,25,30.18,30.11,6,0,6,0.00
2012-7-11,83,69,53,61,56,48,86,66,45,30.16,30.08,9,1,9,0.00
2012-7-12,83,69,56,63,56,49,81,65,44,30.11,30.05,9,1,9,0.00
2012-7-13,83,75,64,64,61,55,86,64,49,30.07,29.97,9,2,11,0.28
2012-7-14,80,69,59,70,63,55,89,82,67,30.01,29.95,9,1,9,0.24
2012-7-15,85,72,59,72,63,56,91,75,50,30.05,29.99,6,0,12,0.00
2012-7-16,89,76,63,71,64,58,88,69,47,30.02,29.72,16,3,16,0.00
2012-7-17,77,72,65,67,64,58,82,76,67,29.95,29.74,8,2,9,0.00
2012-7-18,73,66,60,61,58,54,83,75,65,30.05,29.91,7,1,7,0.00
2012-7-19,78,67,56,60,56,51,83,68,54,30.09,29.95,10,1,10,0.02
2012-7-20,81,66,51,65,56,47,87,72,58,30.14,30.01,10,2,10,0.00
2012-7-21,85,77,60,68,61,41,84,60,25,30.03,29.98,6,1,6,0.00
2012-7-22,87,71,53,71,61,48,85,71,56,30.05,29.89,7,1,8,0.00
2012-7-23,85,75,65,69,63,57,88,67,49,29.98,29.86,11,1,11,0.00
2012-7-24,83,70,54,63,58,50,87,67,47,30.06,29.94,5,0,6,0.00
2012-7-25,75,66,57,69,62,54,92,86,72,29.93,29.61,6,0,8,1.18
2012-7-26,74,67,60,67,63,52,93,87,73,29.81,29.62,6,1,7,1.72
2012-7-27,73,64,55,63,58,50,93,82,61,30.07,29.78,8,2,9,0.06
2012-7-28,80,63,46,58,51,43,90,68,41,30.14,30.05,6,0,6,0.00
2012-7-29,81,69,54,65,59,49,88,73,56,30.06,29.94,7,1,7,0.00
2012-7-30,81,70,62,69,62,55,90,76,57,29.98,29.83,11,1,14,0.00
2012-7-31,79,66,54,60,56,47,88,72,50,30.01,29.90,6,1,10,0.00
2012-8-1,78,65,51,65,57,46,87,76,54,29.96,29.78,14,1,14,0.06
2012-8-2,82,72,64,65,62,56,88,73,53,29.91,29.78,5,0,6,0.00
2012-8-3,79,69,59,67,62,55,87,79,66,29.98,29.91,5,0,6,0.00
2012-8-4,74,67,61,65,62,56,91,84,74,29.93,29.80,8,1,10,0.28
2012-8-5,72,62,52,56,51,46,85,69,50,30.09,29.82,12,1,12,0.02
2012-8-6,79,64,49,59,53,44,87,70,50,30.09,29.92,9,1,57,0.00
2012-8-7,74,66,55,62,56,49,89,72,55,30.03,29.90,7,1,8,0.06
2012-8-8,63,58,50,57,53,45,89,83,79,30.07,30.00,2,0,5,0.08
2012-8-9,64,57,53,59,54,50,91,88,80,30.05,29.97,9,1,9,0.22
2012-8-10,67,59,47,53,50,40,88,73,54,30.07,30.02,13,2,14,0.00
2012-8-11,70,57,42,54,48,37,89,72,56,30.05,29.95,8,1,10,0.00
2012-8-12,69,57,43,56,49,38,88,74,56,29.99,29.93,5,0,6,0.00
2012-8-13,74,63,54,61,56,50,89,79,59,29.96,29.90,7,0,8,0.10
2012-8-14,72,60,46,59,51,43,91,75,54,29.95,29.88,5,0,7,0.00
2012-8-15,76,63,46,61,54,42,88,72,57,29.93,29.77,9,1,9,0.00
2012-8-16,65,61,54,58,54,49,88,79,68,29.91,29.68,11,1,11,0.12
2012-8-17,66,55,44,50,45,39,89,70,49,29.99,29.90,8,1,11,0.02
2012-8-18,70,55,42,54,47,37,86,75,53,29.99,29.91,9,1,9,0.16
2012-8-19,68,55,44,57,47,36,91,76,48,29.99,29.91,7,0,7,0.00
2012-8-20,70,55,39,53,45,34,87,70,51,29.97,29.91,7,0,7,0.00
2012-8-21,76,60,45,58,49,41,87,68,45,30.04,29.96,6,0,7,0.00
2012-8-22,81,64,49,58,51,43,82,65,43,30.02,29.96,9,1,9,0.00
2012-8-23,74,64,55,64,57,48,84,79,67,30.02,29.92,5,0,5,0.00
2012-8-24,82,72,65,68,62,58,83,70,59,29.94,29.88,10,2,12,0.00
2012-8-25,85,72,58,64,58,52,81,62,40,30.00,29.93,13,2,13,0.00
2012-8-26,78,66,57,67,60,52,90,80,64,30.05,29.93,6,1,8,0.16
2012-8-27,77,63,51,60,53,47,89,72,52,30.10,29.97,9,1,9,0.00
2012-8-28,76,61,48,59,52,43,88,72,51,30.15,30.03,6,0,7,0.00
2012-8-29,82,67,50,67,58,45,88,74,57,30.06,29.92,8,1,9,0.00
2012-8-30,88,75,65,65,62,59,82,66,46,29.93,29.76,14,2,14,0.00
2012-8-31,78,67,52,59,53,41,85,63,41,30.15,29.88,12,1,12,0.00
2012-9-1,78,62,43,56,48,38,85,61,43,30.19,30.08,11,1,11,0.00
2012-9-2,79,66,53,62,53,46,83,66,50,30.10,29.95,6,0,6,0.00
2012-9-3,83,70,60,69,60,50,83,72,58,29.97,29.86,7,1,9,0.00
2012-9-4,82,69,56,69,61,51,91,78,57,29.92,29.77,8,1,8,0.00
2012-9-5,69,62,52,61,56,45,89,81,57,29.86,29.77,6,0,6,0.10
2012-9-6,74,60,47,56,50,44,90,70,46,29.94,29.85,8,1,9,0.00
2012-9-7,61,54,45,55,49,40,89,82,69,29.95,29.84,7,0,7,0.16
2012-9-8,62,51,45,51,46,22,90,83,25,29.90,29.75,9,0,9,0.18
2012-9-9,64,53,-14,53,46,-21,92,78,57,30.10,29.90,7,1,10,0.02
2012-9-10,73,57,38,54,46,34,88,69,49,30.11,29.93,12,2,61,0.00
2012-9-11,81,67,54,59,53,46,77,60,43,29.96,29.82,15,3,15,0.00
2012-9-12,69,60,48,55,48,42,81,65,54,30.17,29.88,10,2,11,0.04
2012-9-13,63,52,40,48,41,30,84,68,41,30.26,30.16,14,1,14,0.00
2012-9-14,64,51,39,46,39,31,82,65,48,30.29,30.24,8,1,8,0.00
2012-9-15,74,55,34,52,43,29,85,65,45,30.29,29.99,7,1,7,0.00
2012-9-16,76,63,-21,53,48,-29,71,58,40,29.99,29.84,12,2,17,0.00
2012-9-17,62,51,41,52,45,37,88,81,67,29.90,29.82,7,0,7,0.28
2012-9-18,47,39,29,40,34,25,89,82,68,29.93,29.84,7,1,10,0.06
2012-9-19,53,42,29,49,37,25,89,84,74,29.90,29.60,8,1,12,0.28
2012-9-20,52,45,38,47,42,35,91,88,77,29.83,29.67,10,1,10,0.16
2012-9-21,52,43,34,43,38,30,92,82,65,29.80,29.71,8,1,10,0.14
2012-9-22,49,40,32,41,34,28,89,78,57,30.06,29.70,13,1,13,0.00
2012-9-23,50,40,31,39,34,26,86,79,63,30.14,30.05,6,0,6,0.08
2012-9-24,67,49,32,43,36,27,83,62,40,30.05,29.62,17,3,17,0.00
2012-9-25,59,46,34,42,36,26,84,68,51,29.93,29.79,6,1,8,0.00
2012-9-26,52,39,28,41,32,22,85,74,62,30.18,29.92,9,1,9,0.00
2012-9-27,61,42,27,44,33,22,87,71,48,30.26,30.14,6,0,7,0.00
2012-9-28,66,46,29,47,35,24,86,67,44,30.17,30.06,5,0,6,0.00
2012-9-29,66,50,35,47,37,29,85,63,37,30.08,30.01,8,1,8,0.00
2012-9-30,65,47,30,46,36,24,86,67,46,30.04,29.89,7,1,7,0.00
2012-10-1,68,52,39,49,42,33,83,68,48,29.89,29.80,7,1,8,0.00
2012-10-2,65,48,35,44,38,30,87,69,45,29.95,29.88,6,0,6,0.00
2012-10-3,72,53,36,53,42,31,87,68,46,29.96,29.90,7,0,7,0.00
2012-10-4,62,50,39,50,39,27,84,66,48,29.96,29.78,16,3,16,0.00
2012-10-5,39,37,33,28,26,25,76,64,60,29.92,29.86,15,3,15,0.00
2012-10-6,38,34,30,29,26,23,83,74,64,30.10,29.88,9,1,12,0.02
2012-10-7,46,36,24,29,24,17,81,63,40,30.09,29.91,12,1,12,0.00
2012-10-8,52,51,49,36,35,33,59,54,52,29.68,29.63,16,4,18,0.00
2012-10-9,52,40,34,39,34,30,86,79,55,29.73,29.64,8,2,16,0.28
2012-10-10,41,33,28,30,24,19,84,71,54,29.97,29.73,10,1,12,0.00
2012-10-11,42,35,28,33,26,21,84,71,56,30.23,29.80,8,1,8,0.00
2012-10-12,47,33,22,31,23,17,84,67,43,30.37,30.12,11,1,11,0.00
2012-10-13,44,39,32,40,34,19,89,82,57,30.12,29.70,7,0,10,0.12
2012-10-14,43,41,38,41,38,-7,91,90,14,29.76,29.58,12,1,64,0.14
2012-10-15,52,40,34,39,34,28,91,80,62,29.88,29.71,10,1,10,0.00
2012-10-16,58,47,38,47,40,32,84,77,66,29.83,29.47,9,0,10,0.02
2012-10-17,67,52,43,54,46,38,89,80,61,29.47,29.23,8,0,11,0.24
2012-10-18,50,45,41,47,42,38,91,89,87,29.42,29.11,6,0,6,0.52
2012-10-19,47,42,39,41,38,36,90,87,81,29.62,29.42,8,1,9,0.02
2012-10-20,50,42,32,44,38,29,91,86,76,29.84,29.62,6,0,6,0.02
2012-10-21,59,43,30,48,37,27,90,79,63,29.93,29.83,8,0,8,0.00
2012-10-22,61,50,40,49,43,36,88,76,63,30.00,29.91,10,2,10,0.00
2012-10-23,49,47,46,46,42,40,88,84,79,29.97,29.86,9,2,9,0.00
2012-10-24,64,62,60,62,60,58,93,93,92,29.75,29.67,6,1,6,0.02
2012-10-25,64,48,32,61,38,0,93,73,88,29.90,29.48,10,1,19,1.40
2012-10-26,37,32,29,29,27,23,88,79,69,30.23,29.90,7,1,8,0.00
2012-10-27,40,31,24,24,21,16,78,67,52,30.26,30.19,9,0,9,0.00
2012-10-28,46,29,19,28,18,0,83,61,48,30.31,30.24,7,0,7,0.00
2012-10-29,45,31,19,31,22,0,84,69,53,30.30,30.16,8,1,8,0.00
2012-10-30,36,32,29,25,23,20,79,70,57,30.16,29.87,16,4,18,0.00
2012-10-31,39,31,24,29,23,15,79,73,62,29.87,29.78,14,2,14,0.00
2012-11-1,36,31,23,29,24,15,84,76,67,29.90,29.75,10,1,10,0.00
2012-11-2,36,30,24,25,21,17,78,71,62,30.12,29.90,12,2,12,0.00
2012-11-3,37,28,21,27,21,-5,78,74,25,30.19,30.12,6,1,9,0.00
2012-11-4,38,25,17,27,19,12,82,76,64,30.20,30.13,7,0,7,0.00
2012-11-5,35,25,15,25,19,10,84,76,65,30.18,29.98,7,0,7,0.00
2012-11-6,32,30,24,29,26,18,88,85,78,29.98,29.75,6,0,6,0.02
2012-11-7,137,33,30,100,22,0,89,66,86,30.04,29.88,3,0,3,0.00
2012-11-8,47,36,32,37,31,27,88,81,66,30.04,29.90,12,1,12,0.00
2012-11-9,41,37,33,36,33,27,86,83,58,30.07,29.99,8,2,10,0.00
2012-11-10,51,39,32,49,36,28,93,89,83,30.07,29.65,9,1,10,0.06
2012-11-11,55,48,29,52,43,0,93,85,83,29.73,29.57,12,2,15,0.76
2012-11-12,28,21,19,26,16,14,90,82,76,30.09,29.73,12,2,12,0.00
2012-11-13,35,25,19,24,18,14,82,75,60,30.29,30.09,7,2,8,0.00
2012-11-14,39,32,26,29,22,0,77,68,66,30.29,30.16,11,1,11,0.00
2012-11-15,50,37,25,35,20,0,81,49,56,30.32,30.11,8,1,8,0.00
2012-11-16,40,28,18,28,14,0,82,52,54,30.43,30.32,6,0,6,0.00
2012-11-17,32,13,0,29,4,0,87,13,74,30.36,30.29,6,0,6,0.00
2012-11-18,52,30,0,38,22,0,84,39,51,30.30,29.79,6,1,9,0.00
2012-11-19,56,45,37,40,33,28,72,65,54,29.80,29.64,10,1,10,0.00
2012-11-20,53,40,28,42,32,23,85,75,62,29.72,29.64,5,0,5,0.00
2012-11-21,52,39,28,41,33,23,89,78,63,29.70,29.46,9,1,9,0.00
2012-11-22,59,48,30,43,39,25,82,70,56,29.46,29.17,14,2,16,0.00
2012-11-23,29,22,19,25,17,13,85,80,77,29.72,29.24,16,2,16,0.00
2012-11-24,24,20,17,15,13,10,79,74,68,29.75,29.37,8,1,12,0.02
2012-11-25,24,22,20,20,17,14,84,81,77,29.57,29.33,6,0,7,0.00
2012-11-26,20,13,2,15,7,-3,81,77,71,29.85,29.57,6,0,6,0.00
2012-11-27,27,18,3,18,11,-2,82,75,62,29.83,29.62,9,2,10,0.00
2012-11-28,26,21,16,18,15,-30,83,75,65,29.82,29.68,8,2,8,0.00
2012-11-29,30,22,11,24,17,6,86,82,78,29.81,29.68,8,1,11,0.00
2012-11-30,28,24,20,25,20,15,89,85,77,29.83,29.73,10,1,10,0.00
2012-12-1,37,33,28,35,31,25,92,91,89,29.74,29.37,6,0,6,0.06
2012-12-2,37,34,32,34,31,0,92,90,92,29.59,29.38,4,0,4,0.00
2012-12-3,52,42,32,51,36,0,94,81,49,29.55,29.19,8,1,14,0.02
2012-12-4,38,29,19,34,21,10,88,73,55,29.85,29.36,13,2,13,0.00
2012-12-5,30,24,19,21,16,12,78,72,65,29.96,29.64,6,0,9,0.00
2012-12-6,35,32,27,32,27,20,90,84,76,29.64,29.34,11,2,11,0.04
2012-12-7,29,25,23,25,20,18,85,81,77,29.59,29.46,5,1,6,0.00
2012-12-8,29,22,15,22,16,11,87,80,73,29.71,29.55,6,1,6,0.00
2012-12-9,26,22,17,22,18,13,87,84,81,29.75,29.37,10,2,10,0.00
2012-12-10,25,22,20,20,18,16,88,85,80,29.43,29.34,7,0,7,0.00
2012-12-11,21,17,14,18,13,9,86,83,80,29.54,29.34,10,2,11,0.00
2012-12-12,34,21,9,26,16,5,84,80,72,29.67,29.52,11,1,12,0.02
2012-12-13,37,32,26,26,19,0,79,60,57,29.68,29.54,11,2,13,0.00
2012-12-14,31,28,24,25,23,20,86,82,78,29.76,29.61,2,0,57,0.00
2012-12-15,34,32,28,31,29,25,91,90,86,29.61,29.12,0,0,3,0.06
2012-12-16,33,32,28,31,27,0,92,84,91,29.24,29.10,2,0,4,0.08
2012-12-17,28,23,22,26,20,19,91,89,87,29.29,29.23,0,0,0,0.00
2012-12-18,25,22,20,21,18,16,88,86,84,29.38,29.26,0,0,2,0.00
2012-12-19,26,21,13,23,18,10,90,88,86,29.60,29.38,0,0,0,0.00
2012-12-20,29,26,24,27,23,21,91,90,89,29.53,29.15,4,0,4,0.00
2012-12-21,21,19,17,17,15,13,86,83,82,29.68,29.52,15,1,15,0.00
2012-12-22,28,15,3,18,10,-1,85,78,63,29.68,29.47,6,0,6,0.00
2012-12-23,20,15,6,16,10,1,84,79,72,29.60,29.47,10,0,10,0.00
2012-12-24,20,14,11,15,10,5,84,81,77,29.70,29.50,5,0,6,0.00
2012-12-25,18,12,3,12,7,-2,82,80,75,29.93,29.71,2,0,6,0.00
2012-12-26,20,17,11,15,12,7,84,81,76,29.81,29.75,5,0,5,0.00
2012-12-27,22,17,14,14,11,8,83,77,70,29.79,29.70,9,0,9,0.00
2012-12-28,22,18,14,16,14,8,86,82,78,29.70,29.50,7,0,7,0.00
2012-12-29,22,18,12,17,14,9,86,84,82,29.61,29.49,0,0,0,0.00
2012-12-30,20,15,10,15,10,0,84,79,75,29.70,29.41,5,0,7,0.00
2012-12-31,20,12,-1,15,7,-6,83,77,70,29.66,29.40,7,0,11,0.00
2013-1-1,14,7,-3,6,0,-8,80,73,62,29.70,29.55,8,0,8,0.00